sat.trackr.live / text

‹ back to catalog

VIZARD-ION (RS68S)

NORAD 61749 · 2024-199Q

PAYLOAD ACTIVE UNKNOWN

§ Identity

Operator
Country
CIS
Launch date
2024-11-04
Launch site
VOSTO
Launch vehicle
Mass (kg)
RCS (m²)

External: N2YO · Heavens-Above · Gunter

§ Orbital elements

Epoch: 2026-05-25T03:44:35.985120Z

Period
92.70 min
Inclination
97.3027°
Eccentricity
0.0006492
Mean motion
15.53345638 rev/d
Perigee alt
402.6 km
Apogee alt
411.4 km
Semi-major
6,785.1 km
B*
5.3769e-4
RAAN
20.9542°
Arg perigee
18.3478°
Mean anomaly
341.8008°
Rev number
13,399

§ Raw data

VIZARD-ION (RS68S)1 61749U 24199Q   26145.15597205  .00033970  00000+0  53769-3 0  99982 61749  97.3027  20.9542 0006492  18.3478 341.8008 15.53345638133993

JSON: /api/v1/satellites/61749 · /tle

For live sub-satellite position, see the globe view (requires WebGL).

§ Visibility from observer

Set your observer location to see the next 7 days of passes ≥ 10°. The values pass through the URL so the page stays shareable.

No JS? Fill the form by hand. The geolocation button needs JavaScript.

§ Radio — SatNOGS DB

ModeDescriptionDownlinkUplink
GFSK Mode U - GFSK9k6 - AX.25 Beacon and Telemetry (Geoscan framing) 436.870 MHz
DVB-S2 Mode X - DVB-S2 10.475 GHz
CW Mode U - CW Beacon (inactive) 436.870 MHz

3 transmitters · refreshed weekly from db.satnogs.org